Flag for U.S.A. Weather past 2 weeks in Plano, Texas, U.S.A.

Now
81 °F

Passing clouds.


Feels Like: 82 °F
Forecast: 77 / 96 °F
Wind: 3 mph from Southeast

Location: McKinney Municipal Airport

Current Time: Aug 1, 2015 at 11:42:23 PM

Latest Report: Aug 1, 2015 at 10:53 PM


Visibility: 10 mi

Pressure: 29.95 "Hg

Humidity: 54%

Dew point: 63 °F

Location of PlanoLocation

Historic Weather in Plano — Graph

°F

Plano temperature yesterday

Maximum temperature yesterday: 96 °F (at 3:53 PM)
Minimum temperature yesterday: 77 °F (at 4:53 AM)
Average temperature yesterday: 86 °F

Past Weeks' High & Low Weather Summary

 TemperatureHumidityPressure
High100 °F (Jul 30, 4:53 PM)88% (Jul 25, 5:53 AM)30.08 "Hg (Jul 25, 5:53 AM)
Low72 °F (Aug 1, 6:53 AM)27% (Aug 1, 2:53 PM)29.78 "Hg (Jul 21, 6:53 PM)
Average87 °F57%29.93 "Hg
* Reported Jul 17 9:53 PM — Aug 1 9:53 PM, Plano, Weather by CustomWeather, © 2015

Note: Actual official high and low records may vary slightly from our data, if they occured in-between our weather recording intervals... More about our weather records

Advertising

Plano weather history for previous 24 hours

 ConditionsComfort  
Time TempWeatherWind HumidityBarometerVisibility
9:53 PM
Sat, Aug 1
85 °FClear.5 mph45%29.93 "Hg10 mi
8:53 PM85 °FSunny.3 mph42%29.92 "Hg10 mi
7:53 PM90 °FSunny.7 mph32%29.91 "Hg10 mi
6:53 PM94 °FSunny.5 mph28%29.91 "Hg10 mi
5:53 PM95 °FSunny.6 mph27%29.92 "Hg10 mi
4:53 PM95 °FSunny.6 mph28%29.95 "Hg10 mi
3:53 PM94 °FSunny.No wind27%29.97 "Hg10 mi
2:53 PM94 °FSunny.No wind27%29.99 "Hg10 mi
1:53 PM92 °FSunny.3 mph32%30.01 "Hg10 mi
12:53 PM91 °FSunny.7 mph36%30.04 "Hg10 mi
11:53 AM89 °FSunny.7 mph42%30.06 "Hg10 mi
10:53 AM86 °FPartly sunny.9 mph48%30.06 "Hg10 mi
9:53 AM83 °FOvercast.7 mph55%30.06 "Hg10 mi
8:53 AM81 °FOvercast.No wind58%30.05 "Hg10 mi
7:53 AM77 °FSunny.No wind66%30.03 "Hg10 mi
6:53 AM72 °FPassing clouds.No wind78%30.02 "Hg10 mi
5:53 AM73 °FClear.No wind74%30.01 "Hg10 mi
4:53 AM74 °FClear.No wind71%30.01 "Hg10 mi
3:53 AM73 °FClear.No wind69%30.01 "Hg10 mi
2:53 AM73 °FClear.No wind74%30.01 "Hg10 mi
1:53 AM77 °FClear.No wind62%30.01 "Hg10 mi
12:53 AM80 °FClear.No wind52%30.01 "Hg10 mi
11:53 PM
Fri, Jul 31
82 °FClear.5 mph49%30.01 "Hg10 mi
Weather by CustomWeather, © 2015

See weather overviewHow to use our weather pages